• In Hungary
  • List of Countries
  • For 7 days
  • Water Temperature
  • Satellite Maps
  • Weather Map
  • News
  • Weather Widgets
  • user-avatar
    Login

    Hourly Weather Nasciszowa

    Today, 19 September, Wednesday

    Time Temperature Precipitation Wind Pressure Humidity
    00:00 +15°C° 0 mm 2 mps 732 mmHg 78%
    01:00 +15°C° 0 mm 2 mps 732 mmHg 78%
    02:00 +14°C° 0 mm 2 mps 732 mmHg 78%
    03:00 +14°C° 0 mm 2 mps 732 mmHg 79%
    04:00 +14°C° 0 mm 2 mps 732 mmHg 79%
    05:00 +15°C° 0 mm 2 mps 733 mmHg 76%
    06:00 +15°C° 0 mm 2 mps 733 mmHg 73%
    07:00 +16°C° 0 mm 2 mps 733 mmHg 70%
    08:00 +19°C° 0 mm 2 mps 733 mmHg 62%
    09:00 +21°C° 0 mm 2 mps 733 mmHg 53%
    10:00 +25°C° 0 mm 2 mps 734 mmHg 44%
    11:00 +25°C° 0 mm 2 mps 734 mmHg 42%
    12:00 +26°C° 0 mm 2 mps 733 mmHg 39%
    13:00 +27°C° 0 mm 2 mps 733 mmHg 36%
    14:00 +27°C° 0 mm 2 mps 733 mmHg 40%
    15:00 +27°C° 0 mm 1 mps 733 mmHg 43%
    16:00 +26°C° 0 mm 1 mps 733 mmHg 47%
    17:00 +24°C° 0 mm 1 mps 733 mmHg 52%
    18:00 +21°C° 0 mm 1 mps 733 mmHg 58%
    19:00 +19°C° 0 mm 1 mps 733 mmHg 64%
    20:00 +18°C° 0 mm 1 mps 733 mmHg 67%
    21:00 +18°C° 0 mm 1 mps 733 mmHg 69%
    22:00 +16°C° 0 mm 1 mps 733 mmHg 71%
    23:00 +16°C° 0 mm 1 mps 733 mmHg 73%

    Tomorrow, 20 September, Thursday

    Time Temperature Precipitation Wind Pressure Humidity
    00:00 +16°C° 0 mm 1 mps 733 mmHg 74%
    01:00 +15°C° 0 mm 1 mps 733 mmHg 75%
    02:00 +15°C° 0 mm 1 mps 733 mmHg 75%
    03:00 +15°C° 0 mm 1 mps 733 mmHg 76%
    04:00 +15°C° 0 mm 1 mps 733 mmHg 76%
    05:00 +16°C° 0 mm 1 mps 733 mmHg 74%
    06:00 +18°C° 0 mm 1 mps 733 mmHg 71%
    07:00 +19°C° 0 mm 1 mps 733 mmHg 69%
    08:00 +21°C° 0 mm 1 mps 734 mmHg 61%
    09:00 +24°C° 0 mm 1 mps 734 mmHg 54%
    10:00 +26°C° 0 mm 1 mps 734 mmHg 46%
    11:00 +27°C° 0 mm 1 mps 734 mmHg 44%
    12:00 +27°C° 0 mm 1 mps 733 mmHg 42%
    13:00 +28°C° 0 mm 1 mps 733 mmHg 40%
    14:00 +27°C° 0 mm 1 mps 733 mmHg 44%
    15:00 +26°C° 0 mm 1 mps 733 mmHg 47%
    16:00 +26°C° 0 mm 1 mps 732 mmHg 50%
    17:00 +24°C° 0 mm 1 mps 732 mmHg 55%
    18:00 +22°C° 0 mm 1 mps 732 mmHg 61%
    19:00 +20°C° 0 mm 1 mps 732 mmHg 66%
    20:00 +19°C° 0 mm 1 mps 732 mmHg 69%
    21:00 +18°C° 0 mm 1 mps 732 mmHg 71%
    22:00 +18°C° 0 mm 1 mps 732 mmHg 74%
    23:00 +16°C° 0 mm 1 mps 732 mmHg 75%

    Day after tomorrow, 21 September, Friday

    Time Temperature Precipitation Wind Pressure Humidity
    00:00 +16°C° 0 mm 1 mps 732 mmHg 76%
    01:00 +16°C° 0 mm 1 mps 731 mmHg 77%
    02:00 +16°C° 0 mm 1 mps 731 mmHg 78%
    03:00 +15°C° 0 mm 1 mps 731 mmHg 78%
    04:00 +15°C° 0 mm 1 mps 731 mmHg 79%
    05:00 +16°C° 0 mm 1 mps 731 mmHg 76%
    06:00 +18°C° 0 mm 1 mps 731 mmHg 73%
    07:00 +19°C° 0 mm 1 mps 731 mmHg 71%
    08:00 +20°C° 0 mm 2 mps 731 mmHg 62%
    09:00 +23°C° 0 mm 2 mps 731 mmHg 54%
    10:00 +26°C° 0 mm 3 mps 731 mmHg 45%
    11:00 +27°C° 0 mm 3 mps 731 mmHg 43%
    12:00 +27°C° 0 mm 4 mps 731 mmHg 40%
    13:00 +28°C° 0 mm 4 mps 730 mmHg 38%
    14:00 +27°C° 0 mm 4 mps 730 mmHg 41%
    15:00 +27°C° 0 mm 3 mps 730 mmHg 44%
    16:00 +26°C° 0 mm 3 mps 729 mmHg 47%
    17:00 +24°C° 0 mm 3 mps 729 mmHg 52%
    18:00 +21°C° 0 mm 3 mps 729 mmHg 58%
    19:00 +19°C° 0 mm 3 mps 729 mmHg 63%
    20:00 +19°C° 0 mm 3 mps 729 mmHg 63%
    21:00 +18°C° 0 mm 3 mps 729 mmHg 63%
    22:00 +18°C° 0 mm 3 mps 729 mmHg 63%
    23:00 +17°C° 0 mm 3 mps 728 mmHg 62%

    22 September, Saturday

    Time Temperature Precipitation Wind Pressure Humidity
    00:00 +17°C° 0 mm 3 mps 728 mmHg 61%
    01:00 +17°C° 0 mm 3 mps 728 mmHg 59%
    02:00 +17°C° 0 mm 3 mps 728 mmHg 59%
    03:00 +16°C° 0 mm 2 mps 729 mmHg 59%
    04:00 +16°C° 0 mm 2 mps 729 mmHg 59%
    05:00 +16°C° 0 mm 3 mps 729 mmHg 65%
    06:00 +14°C° 0 mm 3 mps 730 mmHg 70%
    07:00 +14°C° 0 mm 4 mps 731 mmHg 75%
    08:00 +13°C° 0.2 mm 3 mps 731 mmHg 77%
    09:00 +12°C° 0.2 mm 3 mps 732 mmHg 79%
    10:00 +12°C° 0.2 mm 3 mps 732 mmHg 81%
    11:00 +11°C° 0.7 mm 3 mps 732 mmHg 82%
    12:00 +10°C° 0.7 mm 3 mps 732 mmHg 82%
    13:00 +10°C° 0.7 mm 3 mps 732 mmHg 82%
    14:00 +9°C° 1.7 mm 3 mps 732 mmHg 85%
    15:00 +8°C° 1.7 mm 2 mps 732 mmHg 89%
    16:00 +8°C° 1.7 mm 2 mps 732 mmHg 92%
    17:00 +7°C° 0.4 mm 2 mps 733 mmHg 92%
    18:00 +7°C° 0.4 mm 2 mps 733 mmHg 91%
    19:00 +8°C° 0.4 mm 1 mps 733 mmHg 91%
    20:00 +7°C° 0 mm 1 mps 733 mmHg 91%
    21:00 +6°C° 0 mm 2 mps 733 mmHg 90%
    22:00 +6°C° 0 mm 2 mps 733 mmHg 89%
    23:00 +6°C° 0 mm 2 mps 733 mmHg 89%

    23 September, Sunday

    Time Temperature Precipitation Wind Pressure Humidity
    00:00 +6°C° 0 mm 2 mps 733 mmHg 89%
    01:00 +6°C° 0 mm 2 mps 733 mmHg 89%
    02:00 +6°C° 0 mm 2 mps 734 mmHg 89%
    03:00 +6°C° 0 mm 2 mps 734 mmHg 90%
    04:00 +6°C° 0 mm 2 mps 734 mmHg 90%
    05:00 +7°C° 0 mm 2 mps 734 mmHg 88%
    06:00 +8°C° 0 mm 2 mps 734 mmHg 86%
    07:00 +9°C° 0 mm 2 mps 734 mmHg 83%
    08:00 +12°C° 0 mm 2 mps 734 mmHg 72%
    09:00 +14°C° 0 mm 2 mps 734 mmHg 61%
    10:00 +16°C° 0 mm 3 mps 734 mmHg 49%
    11:00 +17°C° 0 mm 3 mps 734 mmHg 46%
    12:00 +17°C° 0 mm 2 mps 733 mmHg 43%
    13:00 +18°C° 0 mm 2 mps 733 mmHg 40%
    14:00 +18°C° 0 mm 2 mps 732 mmHg 42%
    15:00 +17°C° 0 mm 2 mps 731 mmHg 45%
    16:00 +17°C° 0 mm 2 mps 731 mmHg 48%
    17:00 +16°C° 0 mm 2 mps 730 mmHg 53%
    18:00 +14°C° 0 mm 2 mps 730 mmHg 58%
    19:00 +11°C° 0 mm 3 mps 729 mmHg 63%
    20:00 +11°C° 0 mm 3 mps 728 mmHg 61%
    21:00 +12°C° 0 mm 4 mps 727 mmHg 59%
    22:00 +12°C° 0 mm 5 mps 726 mmHg 57%
    23:00 +13°C° 0 mm 5 mps 725 mmHg 55%

    24 September, Monday

    Time Temperature Precipitation Wind Pressure Humidity
    00:00 +13°C° 0 mm 6 mps 724 mmHg 52%
    01:00 +14°C° 0 mm 6 mps 723 mmHg 49%
    02:00 +14°C° 0 mm 6 mps 722 mmHg 51%
    03:00 +14°C° 0 mm 7 mps 721 mmHg 53%
    04:00 +14°C° 0 mm 7 mps 720 mmHg 55%
    05:00 +13°C° 1.5 mm 6 mps 720 mmHg 65%
    06:00 +13°C° 1.5 mm 5 mps 720 mmHg 74%
    07:00 +12°C° 1.5 mm 4 mps 720 mmHg 83%
    08:00 +12°C° 0.2 mm 4 mps 720 mmHg 81%
    09:00 +12°C° 0.2 mm 5 mps 720 mmHg 80%
    10:00 +12°C° 0.2 mm 5 mps 720 mmHg 79%
    11:00 +11°C° 0.4 mm 6 mps 720 mmHg 80%
    12:00 +11°C° 0.4 mm 6 mps 719 mmHg 81%
    13:00 +11°C° 0.4 mm 6 mps 719 mmHg 81%
    14:00 +11°C° 0.2 mm 7 mps 720 mmHg 78%
    15:00 +11°C° 0.2 mm 8 mps 721 mmHg 76%
    16:00 +10°C° 0.2 mm 9 mps 721 mmHg 73%
    17:00 +10°C° 0 mm 9 mps 722 mmHg 72%
    18:00 +8°C° 0 mm 10 mps 722 mmHg 71%
    19:00 +8°C° 0 mm 10 mps 723 mmHg 70%
    20:00 +8°C° 0.1 mm 10 mps 724 mmHg 72%
    21:00 +8°C° 0.1 mm 10 mps 724 mmHg 73%
    22:00 +7°C° 0.1 mm 10 mps 725 mmHg 74%
    23:00 +7°C° 0.2 mm 9 mps 725 mmHg 75%
    Show more